EST,Max TemperatureF,Mean TemperatureF,Min TemperatureF,Max Dew PointF,MeanDew PointF,Min DewpointF,Max Humidity, Mean Humidity, Min Humidity, Max Sea Level PressureIn, Mean Sea Level PressureIn, Min Sea Level PressureIn, Max VisibilityMiles, Mean VisibilityMiles, Min VisibilityMiles, Max Wind SpeedMPH, Mean Wind SpeedMPH, Max Gust SpeedMPH,PrecipitationIn, CloudCover, Events, WindDirDegrees
2013-2-1,33,30,25,14,9,6,54,41,34,30.08,29.83,29.65,10,10,10,12,9,29,0.00,4,,269
2013-2-2,32,26,21,25,12,3,82,54,36,30.27,30.16,30.06,10,10,4,10,6,21,0.00,4,Snow,246
2013-2-3,32,28,23,30,26,20,93,87,73,30.05,29.84,29.64,10,5,1,9,4,23,0.10,7,Snow,321
2013-2-4,30,27,24,25,15,6,86,64,35,29.96,29.76,29.67,10,8,2,15,10,28,0.01,4,Snow,295
2013-2-5,33,29,25,31,22,9,93,78,51,30.04,29.96,29.92,10,6,2,7,5,,0.05,8,Snow,44
2013-2-6,39,34,28,32,27,12,96,77,46,30.25,30.01,29.90,10,10,6,9,3,16,0.00,6,,289
2013-2-7,30,27,24,21,14,9,75,59,45,30.52,30.47,30.31,10,10,10,10,6,20,0.00,4,,1
2013-2-8,35,32,30,34,30,21,100,85,67,30.48,29.88,29.28,10,4,1,38,20,67,0.93,8,Rain-Snow,70
2013-2-9,32,32,32,,,,,,,29.25,29.24,29.24,1,1,1,30,26,53,0.10,8,Snow,30
2013-2-10,33,26,19,24,19,16,88,78,59,30.39,30.38,30.35,10,10,10,6,3,,0.00,0,,260
2013-2-11,44,34,23,44,37,22,100,95,79,30.38,29.96,29.62,10,5,0,15,7,28,0.34,6,Fog-Rain,193
2013-2-12,46,40,34,45,32,25,100,73,44,29.88,29.71,29.60,10,9,1,15,8,30,0.01,2,,274
2013-2-13,39,34,30,28,25,21,89,69,49,29.89,29.82,29.70,10,10,10,10,4,17,0.00,1,,246
2013-2-14,42,35,28,36,30,22,100,84,49,30.04,29.81,29.68,10,7,1,7,3,,0.15,5,Rain-Snow,333
2013-2-15,44,39,34,36,34,29,96,82,71,30.08,30.03,29.97,10,10,8,10,6,18,0.00,1,,202
2013-2-16,42,36,30,36,34,31,100,85,70,29.96,29.84,29.63,10,9,4,10,5,24,0.00,6,,348
2013-2-17,36,28,21,31,20,2,93,81,40,29.60,29.36,29.23,10,2,0,22,15,44,0.41,8,Fog-Snow,320
2013-2-18,32,26,19,6,3,0,52,39,28,30.17,29.94,29.63,10,10,9,22,14,36,0.00,1,,284
2013-2-19,45,34,23,43,30,2,100,74,34,30.17,29.93,29.62,10,8,2,18,8,32,0.70,4,Rain,202
2013-2-20,42,35,27,43,29,9,100,78,40,29.79,29.63,29.56,10,8,1,13,6,26,0.03,6,Rain,257
2013-2-21,34,30,26,26,16,12,73,57,45,30.07,29.87,29.79,10,10,8,16,10,30,0.00,6,Snow,298
2013-2-22,37,35,33,29,26,23,78,66,57,30.36,30.29,30.11,10,10,5,13,7,23,0.00,8,Rain-Snow,14
2013-2-23,39,34,30,39,32,28,100,83,65,30.34,30.13,29.89,10,9,5,14,6,21,0.37,8,Rain,110
2013-2-24,44,38,33,43,39,32,100,95,87,29.88,29.66,29.53,8,4,1,18,12,33,1.76,8,Rain-Snow,36
2013-2-25,42,34,26,34,27,22,100,77,47,30.26,30.06,29.86,10,10,3,12,6,21,0.02,4,Snow,356
2013-2-26,42,34,26,34,27,22,92,72,49,30.35,30.29,30.16,10,10,10,12,4,18,0.00,1,,73
2013-2-27,45,43,41,45,41,36,100,93,76,30.13,29.78,29.57,10,4,1,26,15,43,0.63,8,Rain,113
2013-2-28,44,40,36,41,38,34,100,93,79,29.65,29.59,29.51,10,8,0,12,6,18,0.01,8,Fog-Rain,248